Phil's Backyard

 Latitude S 29° 46' 26"    Longitude E 151° 07' 14"    Elevation 586 m

:now: :today: :yesterday: :daily data: :this month: :this year: :records: :monthly records:
:gauges: :graphs: :weatherzone: :forum: :dashboard: :webcam:


A Fire Weather Index for personal weather stations

(See below the table for background)
Legend:
Low (0-210)
Very High (490 - 630)

Moderate (210 - 350)
Extreme (630 - 800)

High (350 - 490)
Catastrophic (800+)


Flame  Flame
194.1
Date Temp. (°C) Wind Speed (km/h) Rain (mm) RH Days since Rain pwsFWI
Prediction is active (including today!), values are above red line.
15/08/22 12.0 16.0 0.0 0.57 1 71.0
14/08/22 11.0 20.0 3.3 0.69 0 90.2
13/08/22 12.0 14.0 13.0 0.82 0 116.9
12/08/22 13.0 13.0 11.0 0.80 0 151.9
11/08/22 16.0 10.0 0.0 0.48 6 194.1
10/08/22 19.4 10.0 0.0 0.29 5 135.5
09/08/22 15.9 14.0 0.0 0.38 4 141.3
08/08/22 16.0 16.0 0.0 0.44 3 129.0
07/08/22 15.7 16.0 0.0 0.39 2 112.4
06/08/22 17.2 18.0 0.0 0.45 1 76.6
05/08/22 14.7 18.0 12.8 0.86 0 74.4
04/08/22 22.9 21.0 29.4 0.54 0 119.3
03/08/22 20.8 11.0 0.0 0.63 2 142.9
02/08/22 18.1 8.0 0.0 0.49 1 150.9
01/08/22 15.2 16.0 2.6 0.70 0 175.5
31/07/22 17.3 18.0 0.0 0.51 14 232.8
30/07/22 17.4 10.0 0.0 0.25 13 207.6
29/07/22 15.9 18.0 0.0 0.39 12 209.0
28/07/22 17.2 11.0 0.0 0.33 11 194.8
27/07/22 13.9 19.0 0.0 0.43 10 215.3
26/07/22 20.7 23.0 0.0 0.54 9 226.3
25/07/22 18.7 6.0 0.0 0.59 8 218.5
24/07/22 19.7 10.0 0.0 0.30 7 235.8
23/07/22 20.2 10.0 0.0 0.44 6 249.6
22/07/22 19.8 21.0 0.0 0.48 5 257.7
21/07/22 16.8 27.0 0.0 0.55 4 237.3
20/07/22 17.4 23.0 0.0 0.51 3 214.9
19/07/22 16.9 16.0 0.0 0.53 2 192.0
18/07/22 17.2 19.0 0.0 0.37 1 188.9
17/07/22 17.8 19.0 0.6 0.54 0 170.1
16/07/22 17.4 13.0 0.0 0.40 3 158.9
15/07/22 16.9 10.0 0.0 0.35 2 159.2
14/07/22 14.2 16.0 0.0 0.56 1 155.4
13/07/22 12.2 21.0 0.2 0.55 0 150.5
12/07/22 16.9 14.0 0.0 0.46 2 147.2
11/07/22 18.1 11.0 0.0 0.53 1 95.6
10/07/22 14.9 14.0 0.2 0.32 0 94.7
09/07/22 13.1 16.0 0.0 0.54 2 73.2
08/07/22 13.5 13.0 0.0 0.53 1 58.6
07/07/22 17.8 16.0 0.6 0.67 0 54.1
06/07/22 15.7 11.0 28.4 0.89 0 18.7
05/07/22 11.3 5.0 17.8 0.89 0 23.7
04/07/22 12.0 10.0 0.0 0.69 1 39.7
03/07/22 12.4 10.0 0.2 0.70 0 59.6
02/07/22 17.3 10.0 0.0 0.61 1 109.6
01/07/22 14.8 5.0 10.6 0.74 0 110.0
30/06/22 15.4 5.0 0.0 0.66 15 153.3
29/06/22 15.9 10.0 0.0 0.57 14 182.6
28/06/22 17.5 13.0 0.0 0.43 13 197.8
27/06/22 15.8 19.0 0.0 0.38 12 195.8
26/06/22 18.3 6.0 0.0 0.39 11 175.5
25/06/22 18.5 10.0 0.0 0.30 10 186.4
24/06/22 17.7 14.0 0.0 0.36 9 170.7
23/06/22 18.7 11.0 0.0 0.33 8 159.7
22/06/22 18.4 13.0 0.0 0.48 7 151.2
21/06/22 19.4 10.0 0.0 0.49 6 156.8
20/06/22 19.6 10.0 0.0 0.40 5 147.3
19/06/22 19.9 6.0 0.0 0.46 4 147.7
18/06/22 18.9 10.0 0.0 0.40 3 143.2
17/06/22 17.3 11.0 0.0 0.44 2 137.7

Science background here. Prediction: https://www.yourweather.co.uk/
:now: :today: :yesterday: :daily data: :this month: :this year: :records: :monthly records:
:gauges: :graphs: :weatherzone: :forum: :dashboard: ::
:
fire index: :fwi graphs: :top10: :extremes: :sysinfo:


Page updated daily at 9:00 AM
powered by CumulusMX v3.1.2 (3055) Valid HTML | Valid CSS
this page by Hans Rottier from the Cumulus Forum

Cumulus Top Weather Sites